Torna al catalogo

HAIYANG 1C

AttivoScienzaSSO
NORAD 43609·PAYLOAD·🇨🇳 China

Lanciato Sep 7, 2018 da Taiyuan Satellite Launch Center

Loading…

Prossimi Passaggi (prossime 24 ore)

TLE

AggiornatoSource: Space-Track

Epoca: Sep 14, 2026, 14:48 UTC

1 43609U 18068A   26257.61706030  .00000062  00000-0  37598-4 0  9994
2 43609  98.5119 328.5940 0010859 182.3729 177.7406 14.34139034419900

Traccia HAIYANG 1C in tempo reale con AllMySat

Download on the App Store